Theta_e
314 311 312 312 311 313 315 316 316 315 314 313 312 312 311 313 312 311 311 311 310 310 309 309 309 309 310 311 312 314 318 319 320 321 322 322 322 321 321 321 320 318 316 314
313 313 313 313 313 314 314 314 314 314 313 312 312 312 312 311 311 312 312 312 311 309 308 308 308 308 310 312 312 316 318 318 320 320 321 321 320 320 320 319 316 313 309 307
313 315 315 314 315 316 315 315 314 315 313 312 312 312 312 312 312 313 312 313 311 311 310 308 307 308 311 312 313 317 317 317 318 318 319 319 318 319 317 313 308 304 303 302
313 314 315 314 315 314 315 314 315 315 315 315 312 316 314 313 312 309 312 311 312 310 309 309 308 308 311 313 313 315 316 316 316 316 318 318 319 316 308 304 303 301 299 298
314 314 314 315 315 313 315 314 315 314 314 315 314 314 314 314 315 315 312 310 311 311 310 309 308 308 310 313 313 313 314 315 316 317 318 318 314 306 303 301 300 298 297 296
313 313 312 313 310 313 311 313 313 313 313 315 315 315 316 317 316 316 314 311 311 310 309 309 307 306 309 313 314 314 315 316 317 316 316 310 305 304 302 299 298 297 296 296
313 312 312 312 312 312 313 313 316 317 315 319 314 315 318 315 314 313 312 310 310 310 308 307 306 306 307 311 313 314 315 315 314 312 306 303 302 301 299 298 297 297 296 295
316 316 312 310 312 313 312 314 316 319 318 317 311 315 316 314 315 312 313 314 310 307 307 306 306 306 306 309 310 311 311 311 308 304 302 301 299 298 297 297 297 297 296 295
315 315 311 310 313 314 312 315 315 317 302 310 315 313 312 309 308 309 310 309 307 306 306 305 305 305 306 308 309 308 308 306 303 301 300 298 298 297 297 297 297 296 295 295
316 320 311 309 312 312 313 312 315 312 314 315 316 316 318 313 310 306 306 306 305 304 305 305 305 304 305 306 306 305 304 302 302 300 299 298 298 297 297 297 296 295 295 294
315 318 312 309 311 313 313 313 314 315 313 317 317 318 312 314 311 307 306 307 307 305 304 304 304 303 303 303 304 303 302 301 300 299 298 298 297 297 297 296 295 295 294 293
314 316 310 312 309 309 312 314 312 317 315 311 313 320 309 311 309 309 308 307 307 306 305 304 303 303 302 301 301 301 301 300 299 298 297 297 297 297 296 296 295 294 293 292
315 317 318 315 312 309 311 311 314 313 307 316 315 319 307 308 310 310 308 307 306 305 303 303 302 302 301 300 300 300 300 300 298 297 297 297 297 296 296 295 295 294 293 291
315 316 319 321 320 313 311 311 311 314 316 315 317 318 312 310 310 307 307 308 307 305 304 302 302 302 301 300 299 299 299 298 298 297 297 297 297 296 295 294 294 293 292 291
316 318 316 318 316 313 312 311 312 313 314 316 317 316 316 313 308 308 311 307 306 304 304 304 303 302 301 300 299 299 299 298 297 296 296 297 296 295 294 294 293 291 291 290
313 316 316 318 316 315 316 312 312 313 313 314 315 315 312 314 313 309 311 309 307 306 306 304 302 300 301 300 300 299 298 297 297 296 296 295 295 294 294 293 292 291 290 289
313 315 315 320 315 315 318 317 316 314 312 312 314 314 311 312 311 309 309 309 308 309 307 304 303 302 301 301 301 299 298 297 296 296 295 295 294 294 294 293 291 291 290 289
310 314 314 319 316 320 317 313 316 317 316 313 311 313 307 311 313 314 313 312 310 309 307 306 305 304 303 301 300 299 298 299 297 296 295 294 294 293 293 292 292 290 289 289
313 313 314 318 320 317 315 306 312 314 316 315 315 314 313 311 309 308 311 310 310 309 308 307 306 305 304 302 301 301 299 298 297 296 296 295 294 293 293 293 292 290 289 289
312 315 315 313 320 321 312 304 303 309 318 310 312 314 313 305 310 311 310 309 308 308 307 306 306 306 306 306 304 306 306 300 298 296 296 295 295 295 295 294 292 291 290 289
312 314 316 317 319 314 303 297 304 316 312 298 306 309 307 307 312 311 311 308 307 307 309 310 310 311 311 310 309 307 301 299 299 297 296 296 296 295 294 293 293 291 290 289
312 314 313 314 316 319 302 301 310 303 300 302 305 306 306 307 308 310 308 309 310 310 307 308 309 307 304 302 301 300 299 299 298 297 296 294 293 293 294 293 292 291 290 289
310 308 309 310 311 301 299 302 302 299 299 303 304 305 305 305 306 308 308 308 307 306 305 303 302 302 301 300 299 299 297 295 293 293 292 292 293 291 290 290 289 289 289 288
300 299 305 305 301 296 295 297 298 298 298 301 303 305 304 304 303 303 302 302 302 302 301 301 299 298 295 293 292 292 292 292 292 291 291 291 290 290 290 289 289 288 288 288
300 300 301 300 295 297 299 297 299 301 303 303 299 300 303 302 300 300 301 300 299 298 296 295 293 292 292 292 292 291 291 291 291 291 291 290 290 290 289 289 289 288 288 288
295 299 303 304 299 302 303 301 303 305 301 298 296 297 298 300 300 297 297 296 295 294 293 292 292 292 292 292 291 291 291 291 290 290 290 290 289 289 289 288 288 288 288 287
Wind_Speed
5 4 7 12 9 6 3 3 4 5 4 5 8 8 10 23 22 22 27 30 30 28 25 20 17 16 15 14 14 14 17 20 21 22 22 21 19 18 17 16 15 12 11 10
3 8 10 7 7 8 8 7 8 5 4 5 6 11 9 10 21 32 36 38 37 32 29 25 21 20 18 17 17 18 21 22 23 23 23 22 21 20 19 17 15 14 13 11
8 7 7 8 5 6 6 6 5 8 1 3 4 7 8 9 25 32 38 40 40 42 37 29 24 23 23 22 22 25 27 26 25 24 24 24 23 21 20 20 19 17 13 11
9 13 4 6 7 8 7 6 6 6 1 5 4 8 6 6 10 11 36 38 42 44 35 29 27 27 27 26 27 28 28 26 25 24 24 23 23 24 24 22 19 17 13 10
9 8 8 14 9 9 7 2 3 3 3 1 4 5 6 8 11 16 24 32 42 46 41 35 31 29 28 30 30 29 28 27 26 25 24 25 27 27 25 22 19 15 13 10
5 3 6 8 2 5 7 5 6 5 3 4 11 9 5 9 12 12 15 30 41 44 41 34 30 30 32 31 31 31 30 29 28 28 27 27 27 26 25 22 19 16 13 10
2 4 3 5 5 5 4 7 2 3 1 8 6 9 16 7 8 9 12 27 39 44 41 37 35 36 35 36 35 33 32 32 32 31 30 27 24 21 20 20 17 15 13 10
11 7 13 7 9 8 8 9 6 7 5 5 1 7 6 12 19 17 15 26 39 41 41 40 37 37 37 37 37 36 36 36 34 32 29 27 24 23 21 18 16 14 12 10
8 7 3 2 5 13 6 8 4 2 2 1 6 8 8 6 8 5 11 28 39 43 43 40 36 36 37 39 40 40 39 37 34 32 30 27 25 23 21 18 16 15 13 10
6 2 3 2 6 2 7 5 3 1 3 6 5 6 10 5 13 7 9 18 27 36 40 39 37 37 39 40 41 41 40 38 35 33 30 28 26 24 21 19 17 15 13 11
6 4 0 5 7 13 5 5 4 4 5 5 5 8 6 11 11 13 15 30 35 39 41 40 39 39 41 42 43 43 41 39 37 34 31 29 27 25 22 20 17 15 13 12
13 4 4 8 4 5 2 7 7 6 7 5 2 21 5 3 3 13 21 30 34 36 38 40 41 42 44 45 45 45 43 41 38 35 32 30 27 26 24 21 19 18 16 15
10 5 2 5 4 3 7 8 17 1 3 13 5 17 3 1 3 11 19 25 32 34 36 38 41 44 47 48 48 47 45 44 40 37 34 32 30 28 25 23 22 20 18 17
20 6 14 20 7 7 8 12 14 18 9 9 24 26 3 3 6 7 16 23 30 35 38 39 42 46 49 50 51 48 46 44 42 39 37 34 33 29 26 25 23 21 20 19
14 12 9 19 4 6 7 13 20 23 31 14 29 25 19 14 12 18 19 20 27 34 39 44 46 48 50 52 51 49 48 46 43 41 38 36 32 29 28 26 25 23 22 21
6 12 12 19 15 10 7 12 24 26 26 26 29 33 7 16 19 17 28 30 34 38 42 44 43 45 48 51 51 51 50 47 44 42 40 37 33 32 30 28 27 25 24 24
12 11 7 19 11 7 8 36 21 19 21 22 25 37 9 17 15 19 27 33 40 42 43 44 45 44 44 45 48 51 48 45 44 43 41 38 35 33 31 30 28 27 27 26
4 14 6 12 7 12 14 6 26 29 29 23 25 28 9 19 32 39 37 36 39 41 40 39 39 40 40 40 39 38 39 40 41 43 42 39 37 34 33 31 29 28 28 27
18 12 6 6 12 9 16 5 9 14 28 27 29 30 31 21 12 15 27 35 38 38 37 35 33 32 30 30 28 28 30 31 35 39 40 38 37 34 32 32 30 30 28 28
17 20 15 6 8 13 7 0 2 6 21 15 23 26 23 15 10 20 26 22 26 23 23 24 23 21 19 19 21 23 28 29 31 32 32 33 31 29 29 29 28 26 27 26
10 11 19 17 11 5 4 4 3 9 7 3 3 15 13 10 20 14 18 22 23 26 25 23 21 17 18 21 24 28 27 26 23 24 25 26 26 26 24 23 24 24 25 25
9 8 6 8 7 10 7 1 9 3 4 6 4 5 16 17 10 16 27 27 24 23 23 21 19 19 19 18 19 21 22 19 20 20 20 22 22 21 21 21 22 23 24 25
4 4 5 7 5 5 16 5 8 2 1 1 1 3 11 14 14 19 23 23 21 18 18 17 18 20 18 17 16 17 16 17 18 19 20 20 20 20 19 20 20 22 23 24
3 2 2 2 2 2 6 7 9 8 6 4 3 2 9 12 12 14 18 20 21 20 19 18 17 18 19 18 16 13 13 15 16 17 18 19 21 20 19 19 20 22 24 26
2 7 6 3 3 4 11 14 13 9 4 3 5 6 9 10 12 14 18 19 19 19 19 18 18 17 15 14 13 13 14 15 16 18 20 23 24 23 22 22 22 23 24 26
5 6 5 5 9 4 4 22 17 17 11 7 6 6 5 7 10 14 18 20 20 21 20 20 17 15 15 15 16 17 17 17 18 19 21 25 26 25 24 24 24 25 27 29
Wind_Direction
182 123 203 202 196 205 225 214 243 261 230 145 217 249 239 227 220 220 215 211 216 217 218 218 215 213 209 206 199 179 168 167 172 174 178 179 184 183 187 183 182 183 174 164
76 230 226 206 210 225 248 260 268 285 205 166 258 248 254 207 223 222 219 218 219 212 212 214 211 207 202 201 188 176 170 174 175 178 178 181 179 176 181 181 175 165 154 145
175 214 206 191 228 196 226 205 233 227 243 267 285 270 248 241 232 232 232 231 222 216 214 209 206 202 199 195 187 179 177 179 178 179 181 180 179 179 174 167 160 147 142 137
224 227 186 166 217 176 238 211 219 241 160 245 152 284 250 242 243 216 233 223 223 213 212 214 207 203 199 194 188 184 182 181 183 184 186 190 186 175 164 159 153 148 146 143
229 181 189 222 213 168 228 158 191 213 197 331 280 290 262 217 248 248 242 221 215 214 210 208 208 207 197 197 194 189 187 187 189 191 192 187 178 170 162 161 160 157 153 152
209 162 161 195 85 161 153 78 40 39 69 259 225 216 199 239 234 257 243 221 209 206 205 206 207 202 199 197 197 193 191 191 190 186 182 181 179 174 170 168 168 163 162 159
181 202 173 150 98 21 121 103 304 318 307 245 217 232 246 247 248 228 227 205 202 201 198 199 199 200 199 198 195 193 191 188 183 179 180 182 184 182 179 175 173 170 168 167
196 246 172 193 184 170 190 162 167 221 216 261 57 238 250 225 247 262 251 223 195 197 200 202 204 204 200 199 195 192 188 187 183 183 184 184 187 187 182 180 179 178 179 179
179 247 107 154 155 155 201 208 186 10 59 346 223 276 300 243 271 281 203 191 192 198 200 203 205 204 201 197 194 191 188 188 188 187 189 189 190 191 189 187 187 189 186 185
203 205 20 355 94 38 155 162 82 58 221 252 258 252 234 213 238 218 211 186 191 197 202 204 206 205 201 197 193 191 192 192 192 193 194 196 196 195 197 198 197 195 197 199
188 158 296 133 208 174 156 185 190 147 167 214 277 256 204 217 221 207 208 200 199 203 206 206 206 206 202 197 195 195 195 196 196 197 198 199 199 200 201 200 201 205 209 211
201 131 165 203 270 258 216 180 164 176 217 235 202 262 176 130 266 207 213 208 212 212 210 210 208 206 202 200 200 200 199 200 201 201 202 202 205 206 204 204 207 211 214 216
172 206 101 317 347 325 205 214 214 246 61 228 196 263 357 65 199 218 215 210 208 207 208 209 210 208 206 204 204 204 204 205 204 204 206 207 209 210 209 210 213 214 216 218
168 171 205 231 231 152 197 197 205 205 229 218 235 257 172 198 228 211 218 213 210 210 211 210 212 212 210 209 208 208 209 210 208 208 210 212 213 213 214 216 217 219 220 223
169 212 200 237 192 159 179 199 204 207 225 210 252 241 239 233 219 219 226 211 207 212 214 216 215 214 214 213 214 214 215 214 213 213 215 217 216 216 217 220 222 222 223 227
181 228 209 243 235 219 214 212 216 219 232 236 250 260 127 235 243 213 227 216 210 216 222 220 217 217 217 217 217 218 219 218 218 219 221 220 218 220 222 225 227 226 229 231
172 197 176 241 207 226 263 238 220 224 229 225 235 244 197 244 242 231 232 223 219 223 223 218 218 219 221 222 222 222 222 223 223 225 225 223 223 224 228 230 230 232 235 236
169 201 199 246 136 216 246 211 220 228 238 226 245 255 209 237 244 253 249 240 230 226 220 219 220 220 222 224 226 228 229 232 229 230 228 227 227 228 231 233 237 238 237 241
198 196 217 231 225 261 277 183 165 189 244 231 236 248 250 232 234 251 244 239 238 228 223 220 217 215 218 224 227 230 230 230 232 231 230 229 229 231 234 237 239 239 240 245
204 214 210 187 232 237 280 272 205 116 252 172 213 237 236 162 225 250 234 228 226 224 209 199 190 193 194 208 218 236 237 232 233 231 232 229 231 233 239 241 242 243 246 248
199 212 220 224 234 253 228 232 151 162 250 313 245 244 174 203 231 258 216 196 192 180 178 183 192 208 229 228 232 232 231 231 232 229 227 227 230 235 238 240 240 242 245 248
186 183 198 219 239 242 183 81 172 229 338 316 284 238 192 202 187 191 181 175 181 187 190 196 207 209 205 203 207 214 219 222 222 221 220 221 225 228 227 228 231 235 241 248
206 192 178 191 207 184 181 179 197 205 250 210 280 224 195 167 164 169 179 186 184 189 189 179 181 178 177 178 182 188 191 199 204 209 216 220 219 217 220 230 238 242 245 250
224 199 164 125 207 224 217 224 190 161 129 101 46 233 199 201 182 170 169 170 171 173 175 175 171 169 165 162 165 172 188 200 211 217 222 222 223 226 233 239 242 247 251 255
176 141 174 273 244 304 252 220 196 174 174 222 212 206 200 197 182 179 175 174 170 166 165 166 164 164 167 175 183 193 204 215 223 230 230 229 231 235 240 244 248 252 257 261
196 173 180 214 180 149 199 212 207 212 198 192 180 148 172 199 201 189 179 170 166 165 167 168 171 179 186 195 203 211 219 227 232 236 238 239 241 244 248 252 255 259 262 265